This demonstration page uses our WeatherBlox Daily Observations layout. Learn more.

39.92423, -83.80882

Hourly Observations for October 1, 2017

Temp ( °F °C ) Dew Point ( °F °C ) Humidity (%) Winds ( mph kmh ) Pressure ( in mb ) Visibility ( mi km ) Precip ( " mm )
12:56 am 00:56 Clear 45 7.2 40 4.4 83 83 E 6 9 30.37 1029 10 16.0934 0 0
1:56 am 01:56 Clear 44 6.7 40 4.4 85 85 E 5 7 30.37 1028 10 16.0934 0 0
2:56 am 02:56 Clear 44 6.7 40 4.4 85 85 NE 5 7 30.36 1028 10 16.0934 0 0
3:56 am 03:56 Clear 40 4.4 38 3.3 93 93 E 7 11 30.35 1028 10 16.0934 0 0
4:56 am 04:56 Clear 42 5.6 38 3.3 85 85 ESE 6 9 30.34 1027 10 16.0934 0 0
5:56 am 05:56 Clear 41 5 38 3.3 89 89 ESE 9 15 30.34 1027 10 16.0934 0 0
6:56 am 06:56 Clear 42 5.6 39 3.9 89 89 E 9 15 30.33 1027 10 16.0934 0 0
7:56 am 07:56 Sunny 42 5.6 39 3.9 89 89 E 5 7 30.35 1028 10 16.0934 0 0
8:56 am 08:56 Sunny 48 8.9 43 6.1 83 83 E 8 13 30.35 1028 10 16.0934 0 0
9:56 am 09:56 Sunny 55 12.8 43 6.1 64 64 ESE 12 19 30.35 1028 10 16.0934 0 0
10:56 am 10:56 Sunny 61 16.1 43 6.1 52 52 ESE 15 24 30.34 1028 10 16.0934 0 0
11:56 am 11:56 Sunny 64 17.8 41 5 43 43 ESE 15 24 30.32 1027 10 16.0934 0 0
12:56 pm 12:56 Sunny 66 18.9 41 5 40 40 SE 15 24 30.3 1026 10 16.0934 0 0
1:56 pm 13:56 Sunny 66 18.9 40 4.4 39 39 SSE 13 20 30.28 1025 10 16.0934 0 0
2:56 pm 14:56 Sunny 68 20 39 3.9 35 35 SE 10 17 30.25 1024 10 16.0934 0 0
3:56 pm 15:56 Sunny 70 21.1 42 5.6 37 37 E 10 17 30.23 1024 10 16.0934 0 0
4:56 pm 16:56 Sunny 69 20.6 42 5.6 38 38 ESE 12 19 30.21 1023 10 16.0934 0 0
5:56 pm 17:56 Sunny 68 20 41 5 38 38 E 10 17 30.22 1023 10 16.0934 0 0
6:56 pm 18:56 Sunny 64 17.8 43 6.1 46 46 E 9 15 30.23 1024 10 16.0934 0 0
7:56 pm 19:56 Clear 56 13.3 42 5.6 60 60 ESE 7 11 30.23 1024 10 16.0934 0 0
8:56 pm 20:56 Clear 53 11.7 42 5.6 66 66 ESE 7 11 30.24 1024 10 16.0934 0 0
9:56 pm 21:56 Clear 52 11.1 43 6.1 72 72 ESE 7 11 30.24 1024 10 16.0934 0 0
10:56 pm 22:56 Clear 50 10 43 6.1 77 77 ESE 6 9 30.24 1024 10 16.0934 0 0
11:56 pm 23:56 Clear 50 10 42 5.6 74 74 Calm 30.25 1024 10 16.0934 0 0

Powered by AerisWeather